Location: Aldenham
(51.6667°N, 0.3500°W)
Time: 18:29:07
(UTC+00:00)

Altair - Pass Details

Date: 25 February 2026
Orbit: 1502 x 1682 km, 47.2° (Epoch: 10 March)

Event Time Altitude Azimuth Distance (km) Brightness Sun altitude
Rises 04:07:17 0° 244° (WSW) 4,630 - -26.5°
Reaches altitude 10° 04:10:19 10° 242° (WSW) 3,652 - -26.1°
Exits shadow 04:15:44 39° 225° (SW) 2,122 7.8 -25.3°
Maximum altitude 04:19:17 61° 165° (SSE) 1,688 7.6 -24.8°
Drops below altitude 10° 04:28:29 10° 88° (E) 3,740 10.6 -23.4°
Sets 04:31:37 0° 85° (E) 4,747 11.5 -22.9°
